Weather History for Clines Corner, NM

Change the Weather History Date:

Friday, May 11, 2012

  Actual Average (KSAF) Record (KSAF)
Temperature  
Mean Temperature 52 °F -  
Max Temperature 66 °F 76 °F 82 °F (2000)
Min Temperature 39 °F 38 °F 28 °F (2003)
Degree Days  
Heating Degree Days 12    
Growing Degree Days 2 (Base 50)    
Moisture  
Dew Point 39 °F    
Average Humidity 67    
Maximum Humidity 93    
Minimum Humidity 35    
Precipitation  
Precipitation 0.16 in - - ()
Sea Level Pressure  
Sea Level Pressure 29.98 in    
Wind  
Wind Speed 8 mph (ESE)    
Max Wind Speed 20 mph    
Max Gust Speed 33 mph    
Visibility 10 miles    
Events Rain    
Averages and records for this station are not official NWS values.
T = Trace of Precipitation, MM = Missing Value Source: NWS Daily Summary

Daily Weather History Graph

Daily Weather History Graph

Search for Another Location

Airport:

Trip Planner

Search our weather history database for the weather conditions in past years. The results will help you decide how hot, cold, wet, or windy it might be!

Date:

Astronomy

May. 11, 2012 Rise Set
Actual Time 6:01 AM MDT 7:56 PM MDT
Civil Twilight 5:34 AM MDT 8:24 PM MDT
Nautical Twilight 5:00 AM MDT 8:58 PM MDT
Astronomical Twilight 4:24 AM MDT 9:34 PM MDT
Moon 12:39 AM MDT (5/11) 11:35 AM MDT (5/11)
Length of Visible Light 14h 50m
Length of Day
13h 54m
Waning Gibbous, 62% of the Moon is Illuminated
May 11
Waning Gibbous
May 12
Last Quarter
May 20
New
May 28
First Quarter
Jun 4
Full

Hourly Weather History & Observations

Time (MDT) Temp. Windchill Dew Point Humidity Pressure Visibility Wind Dir Wind Speed Gust Speed Precip Events Conditions
12:53 AM 44.1 °F 42.5 °F 39.9 °F 85% 29.83 in 10.0 mi ESE 3.5 mph - N/A   Scattered Clouds
1:53 AM 43.0 °F 40.3 °F 37.9 °F 82% 29.82 in 10.0 mi South 4.6 mph - N/A   Clear
2:53 AM 44.1 °F 42.5 °F 37.0 °F 76% 29.80 in 10.0 mi South 3.5 mph - N/A   Clear
3:53 AM 44.1 °F 41.5 °F 36.0 °F 73% 29.79 in 10.0 mi SSW 4.6 mph - N/A   Clear
4:53 AM 39.0 °F 36.8 °F 32.0 °F 76% 29.82 in 10.0 mi WSW 3.5 mph - N/A   Clear
5:53 AM 42.1 °F 39.2 °F 33.1 °F 70% 29.82 in 10.0 mi West 4.6 mph - N/A   Clear
6:53 AM 42.1 °F 35.7 °F 34.0 °F 73% 29.85 in 10.0 mi West 11.5 mph - N/A   Clear
7:53 AM 52.0 °F - 43.0 °F 71% 29.86 in 10.0 mi West 6.9 mph - N/A   Clear
8:53 AM 57.0 °F - 42.1 °F 57% 29.90 in 10.0 mi East 10.4 mph - N/A   Clear
9:53 AM 57.9 °F - 39.9 °F 51% 29.91 in 10.0 mi NE 10.4 mph - N/A   Clear
10:53 AM 62.1 °F - 39.9 °F 44% 29.92 in 10.0 mi Variable 6.9 mph 16.1 mph N/A   Clear
11:53 AM 63.0 °F - 37.0 °F 38% 29.95 in 10.0 mi East 11.5 mph 21.9 mph N/A   Clear
12:53 PM 66.0 °F - 39.0 °F 37% 29.94 in 10.0 mi East 15.0 mph 23.0 mph N/A   Partly Cloudy
1:53 PM 64.9 °F - 37.9 °F 37% 29.95 in 10.0 mi East 19.6 mph 28.8 mph N/A   Scattered Clouds
2:53 PM 63.0 °F - 36.0 °F 37% 29.95 in 10.0 mi East 19.6 mph 28.8 mph N/A   Mostly Cloudy
3:53 PM 63.0 °F - 35.1 °F 35% 29.95 in 10.0 mi ESE 18.4 mph 28.8 mph N/A   Scattered Clouds
4:53 PM 60.1 °F - 34.0 °F 38% 29.97 in 10.0 mi East 18.4 mph 33.4 mph N/A   Clear
5:53 PM 57.9 °F - 33.1 °F 39% 30.03 in 10.0 mi East 16.1 mph 26.5 mph N/A   Overcast
6:53 PM 52.0 °F - 41.0 °F 66% 30.13 in 8.0 mi North 9.2 mph - 0.04 in Rain Light Rain
7:53 PM 46.9 °F - 45.0 °F 93% 30.06 in 9.0 mi SE 9.2 mph - 0.11 in Rain Light Rain
8:53 PM 46.9 °F - 44.1 °F 90% 30.05 in 10.0 mi East 11.5 mph - 0.00 in   Clear
9:53 PM 46.9 °F - 44.1 °F 90% 30.12 in 10.0 mi ENE 4.6 mph - N/A   Overcast
10:24 PM 48.2 °F - 42.8 °F 82% 30.30 in 10.0 mi Calm Calm - 0.00 in Rain Light Rain
10:53 PM 46.9 °F - 44.1 °F 90% 30.11 in 10.0 mi ESE 6.9 mph - 0.01 in Rain Light Rain
11:11 PM 46.4 °F 41.9 °F 44.6 °F 93% 30.31 in 10.0 mi ESE 9.2 mph - 0.00 in   Overcast
11:22 PM 46.4 °F 41.5 °F 44.6 °F 93% 30.30 in 10.0 mi ESE 10.4 mph - 0.00 in   Mostly Cloudy
11:53 PM 46.9 °F - 44.1 °F 90% 30.13 in 10.0 mi East 8.1 mph - 0.00 in   Mostly Cloudy